Voltar ao catálogo

STARLINK-32644

AtivoComunicaçõesVLEO
NORAD 62151·PAYLOAD·🇺🇸 United States

Lançado Nov 30, 2024 de Cape Canaveral Space Force Station

Loading…

Próximas Passagens (próximas 24 horas)

TLE

AtualizadoSource: CelesTrak SupGP

Época: Sep 14, 2026, 22:14 UTC

1 62151C 24224N   26257.92687500 -.00059001  00000+0 -21369-2 0  2574
2 62151  43.0009 169.6247 0001286 268.9444 272.3305 15.27609738    13

Acompanhe STARLINK-32644 em tempo real com AllMySat

Download on the App Store